Location: Göttingen
(51.5413°N, 9.9158°E)
Time: 06:09:00
(UTC+02:00)

BEESAT - Pass Details

Date: 06 July 2022
Orbit: 700 x 706 km, 98.6° (Epoch: 07 August)

Event Time Altitude Azimuth Distance (km) Brightness Sun altitude
Rises 22:31:50 0° 11° (N) 3,108 ? -6.7°
Reaches altitude 10° 22:34:09 10° 7° (N) 2,186 ? -6.9°
Maximum altitude 22:38:47 51° 292° (WNW) 890 ? -7.4°
Drops below altitude 10° 22:43:23 10° 217° (SW) 2,174 ? -7.8°
Sets 22:45:40 0° 213° (SSW) 3,089 ? -8.0°
